Lid_Strength_Index
11 10 10 10 11 11 12 11 13 11 11 9 8 8 7 6 6 6 7 7 7 7 7 8 10 10 11 12 12 13 13 14 14 14 14 14 14 14 14 14 14 14 14 13
13 11 10 11 10 10 10 10 10 10 10 8 8 6 7 6 7 7 7 8 8 7 7 9 10 11 11 12 13 13 14 14 14 15 14 14 14 14 14 14 14 13 13 13
14 13 12 14 11 11 11 9 10 12 9 8 9 7 7 7 7 7 7 8 7 7 8 10 10 10 11 13 14 14 14 15 15 15 15 15 14 14 14 14 13 13 13 13
14 13 18 11 10 9 10 9 9 9 9 8 7 7 7 7 7 7 7 8 7 8 9 9 10 11 12 13 14 15 15 15 15 15 15 15 15 14 14 14 13 13 13 13
15 14 12 12 12 11 11 10 9 9 9 8 8 8 9 8 8 8 8 8 7 8 9 10 11 12 13 14 15 15 15 15 15 15 15 15 15 15 14 14 13 13 13 13
14 16 17 12 11 10 9 12 9 8 9 9 9 10 9 9 9 10 9 9 10 10 10 11 12 13 14 15 16 15 16 16 15 15 15 15 15 14 14 13 14 13 13 13
14 17 13 11 10 9 13 12 9 9 9 9 9 9 9 10 11 10 10 11 11 10 11 12 13 14 15 16 16 16 16 15 15 15 15 15 14 14 13 13 13 13 13 13
13 16 16 10 10 11 9 9 9 8 9 9 10 10 10 10 10 11 12 11 11 12 13 13 14 15 16 16 15 16 15 15 15 15 15 14 14 13 13 13 14 14 13 12
12 12 10 10 9 9 7 9 9 9 9 9 9 9 9 9 10 10 10 11 12 12 13 14 15 15 16 15 16 16 16 15 15 15 14 14 14 14 14 13 14 14 13 12
12 11 11 10 9 9 8 9 9 9 9 8 9 9 9 9 9 10 11 12 12 13 13 15 15 15 16 16 16 16 16 15 15 14 14 14 13 13 14 14 13 13 12 11
12 12 11 11 10 10 10 9 10 10 9 9 8 9 9 9 10 10 11 12 12 13 13 14 15 16 16 16 16 16 15 15 15 14 14 14 13 13 13 12 12 12 11 10
10 9 9 9 9 9 9 10 10 10 11 10 10 10 10 10 10 10 11 12 13 14 14 16 16 16 16 15 15 15 15 15 14 14 14 14 14 13 11 11 10 9 9 9
9 9 10 8 8 8 9 10 10 10 10 11 11 10 10 10 10 11 12 13 14 15 15 16 16 16 15 15 15 15 15 15 14 14 14 14 13 13 13 11 9 9 9 9
9 9 11 9 10 9 9 10 10 11 11 11 11 10 11 11 12 12 14 14 15 16 16 16 16 16 15 15 15 15 14 14 14 14 13 13 13 12 12 12 12 11 9 9
10 10 8 9 10 10 11 11 13 12 12 11 11 11 11 13 13 14 15 16 16 16 16 16 16 15 14 14 15 14 14 14 14 13 13 12 12 11 11 11 11 11 11 10
12 12 11 12 13 13 14 13 13 12 12 12 12 12 11 12 13 15 16 16 16 16 16 16 15 14 14 14 14 14 14 14 13 13 12 12 11 11 11 11 11 11 12 11
13 15 14 15 14 13 12 11 12 13 13 12 12 12 13 14 16 16 16 16 16 16 15 15 15 14 14 14 14 14 14 14 13 12 11 11 11 11 11 11 12 12 12 11
9 10 11 12 13 14 14 13 12 12 11 12 13 13 14 15 15 16 16 16 16 16 15 15 15 14 14 14 14 14 14 13 12 11 11 11 11 11 11 12 12 12 11 10
11 12 13 12 12 12 12 12 12 12 13 13 13 13 14 14 15 16 16 16 16 16 15 15 15 14 14 14 14 13 13 12 11 11 11 11 11 11 12 12 12 12 11 11
13 13 13 13 12 12 12 13 13 13 13 13 14 15 15 16 16 16 16 16 15 15 15 15 14 14 14 14 13 12 11 11 11 11 12 12 12 12 12 12 12 12 12 12
13 13 13 13 13 14 14 13 13 14 14 15 15 15 15 16 16 16 17 16 15 16 15 15 15 14 14 13 12 11 11 11 12 12 12 13 13 12 12 12 12 13 13 13
14 14 14 14 15 15 15 15 14 15 15 16 16 16 17 17 17 17 16 16 15 16 15 14 14 14 13 12 11 11 11 12 12 12 13 12 12 12 13 12 13 13 13 13
14 14 15 15 14 14 15 16 16 16 16 17 17 17 17 16 16 16 17 16 15 15 15 14 14 13 12 11 11 12 12 13 13 13 12 12 12 12 12 13 13 13 13 13
15 15 15 15 15 15 15 17 17 17 17 17 17 17 17 17 17 17 17 17 16 15 15 15 14 13 11 12 12 13 13 13 13 12 12 12 12 12 12 13 13 13 13 13
15 16 17 16 15 16 18 18 18 18 18 18 18 18 18 17 17 17 17 17 16 16 16 15 13 12 13 13 13 13 13 13 12 12 12 12 12 12 13 13 13 13 13 14
16 16 16 16 16 16 17 17 17 18 18 18 18 18 18 18 18 17 17 17 17 16 16 15 14 13 13 13 13 13 13 12 12 12 12 13 13 13 13 14 14 14 14 15
17 17 17 18 17 17 17 17 18 18 18 18 19 19 19 19 18 18 18 17 17 16 15 14 14 14 14 14 13 13 13 13 12 13 13 13 14 14 14 14 14 14 15 15